Flight Track Log - Related Links

Times and Time Zones

All times are in EDT time to prevent confusion due to time zone crossing. See the CPT8691 flight status page for this flight to view local times or setup timezone preferences in your user account.

Time Position Orientation Groundspeed Altitude Reporting Facility
EDT Latitude Longitude Course Direction KTS MPH feet Rate Location/Type
Fri 01:13:26 PM 21.3167 -157.8833 137° Southeast 100 115 600  Level Honolulu Center
Fri 01:14:27 PM 21.3000 -157.8667 137° Southeast 110 127 1,300 694 Climbing Honolulu Center
Fri 01:15:27 PM 21.2667 -157.8500 155° Southeast 120 138 2,000 700 Climbing Honolulu Center
Fri 01:16:27 PM 21.2500 -157.8167 118° Southeast 120 138 2,700 700 Climbing Honolulu Center
Fri 01:17:27 PM 21.2500 -157.7833 90° East 120 138 3,400 650 Climbing Honolulu Center
Fri 01:18:27 PM 21.2333 -157.7500 118° Southeast 120 138 4,000 600 Climbing Honolulu Center
Fri 01:19:27 PM 21.2333 -157.7167 90° East 120 138 4,600 600 Climbing Honolulu Center
Fri 01:20:27 PM 21.2167 -157.6833 118° Southeast 120 138 5,200 650 Climbing Honolulu Center
Fri 01:21:27 PM 21.2167 -157.6500 90° East 120 138 5,900 650 Climbing Honolulu Center
Fri 01:22:27 PM 21.2167 -157.6167 90° East 120 138 6,500 545 Climbing Honolulu Center
Fri 01:23:28 PM 21.2000 -157.5833 118° Southeast 120 138 7,000 248 Climbing Honolulu Center
Fri 01:24:28 PM 21.2000 -157.5500 90° East 140 161 7,000  Level Honolulu Center
Fri 01:25:28 PM 21.1833 -157.5000 110° East 150 173 7,000  Level Honolulu Center
Fri 01:26:28 PM 21.1833 -157.4500 90° East 150 173 7,000  Level Honolulu Center
Fri 01:27:28 PM 21.1667 -157.4167 118° Southeast 150 173 7,000  Level Honolulu Center
Fri 01:28:28 PM 21.1667 -157.3667 90° East 150 173 7,000  Level Honolulu Center
Fri 01:29:28 PM 21.1500 -157.3167 110° East 150 173 7,000  Level Honolulu Center
Fri 01:30:28 PM 21.1500 -157.2833 90° East 160 184 7,000  Level Honolulu Center
Fri 01:31:28 PM 21.1333 -157.2333 110° East 150 173 7,000  Level Honolulu Center
Fri 01:32:28 PM 21.1333 -157.1833 90° East 150 173 7,000  Level Honolulu Center
Fri 01:33:29 PM 21.1167 -157.1500 118° Southeast 150 173 7,000 -50 Level Honolulu Center
Fri 01:34:29 PM 21.1000 -157.1000 110° East 150 173 6,900 -50 Descending Honolulu Center
Fri 01:35:29 PM 21.1000 -157.0667 90° East 150 173 6,900  Level Honolulu Center
Fri 01:36:29 PM 21.0833 -157.0167 110° East 160 184 6,900 -100 Level Honolulu Center
Fri 01:37:29 PM 21.0667 -156.9667 110° East 170 196 6,700 -200 Descending Honolulu Center
Fri 01:38:29 PM 21.0500 -156.9333 118° Southeast 170 196 6,500 -250 Descending Honolulu Center
Fri 01:39:29 PM 21.0333 -156.8833 110° East 150 173 6,200 -500 Descending Honolulu Center
Fri 01:40:29 PM 21.0167 -156.8500 118° Southeast 130 150 5,500 -942 Descending Honolulu Center
Fri 01:41:30 PM 20.9833 -156.8167 137° Southeast 150 173 4,300 -1,388 Descending Honolulu Center
Fri 01:42:30 PM 20.9667 -156.7833 118° Southeast 140 161 2,700 -1,300 Descending Honolulu Center
Fri 01:43:30 PM 20.9500 -156.7333 110° East 150 173 1,700 -1,000 Descending Honolulu Center

Login

Don't have an account? Register now (free) for customized features, flight alerts, and more!